Time,TemperatureF,DewpointF,PressureIn,WindDirection,WindDirectionDegrees,WindSpeedMPH,WindSpeedGustMPH,Humidity,HourlyPrecipIn,Conditions,Clouds,dailyrainin,SoftwareType,DateUTC
2013-02-11 00:00:00,30.6,26.1,29.31,NNW,338,4.3,4.3,83,0.00,,,0.00,WUHU216HW,2013-02-11 06:00:00,
2013-02-11 00:05:00,30.6,26.1,29.31,NNW,338,4.3,4.3,83,0.00,,,0.00,WUHU216HW,2013-02-11 06:05:00,
2013-02-11 00:30:00,31.0,26.5,29.32,NNW,338,4.0,4.0,83,0.00,,,0.00,WUHU216HW,2013-02-11 06:30:00,
2013-02-11 00:35:00,31.0,26.5,29.32,NNW,338,4.0,4.0,83,0.00,,,0.00,WUHU216HW,2013-02-11 06:35:00,
2013-02-11 01:00:00,30.8,25.7,29.34,WNW,293,10.1,10.1,81,0.00,,,0.00,WUHU216HW,2013-02-11 07:00:00,
2013-02-11 01:05:00,30.8,25.7,29.34,WNW,293,10.1,10.1,81,0.00,,,0.00,WUHU216HW,2013-02-11 07:05:00,
2013-02-11 01:30:00,29.9,24.8,29.35,NW,315,8.7,8.7,81,0.00,,,0.00,WUHU216HW,2013-02-11 07:30:00,
2013-02-11 01:35:00,29.9,24.8,29.35,NW,315,8.7,8.7,81,0.00,,,0.00,WUHU216HW,2013-02-11 07:35:00,
2013-02-11 02:00:00,29.3,23.9,29.37,NW,315,9.6,9.6,80,0.00,,,0.00,WUHU216HW,2013-02-11 08:00:00,
2013-02-11 02:05:00,29.3,23.9,29.37,NW,315,9.6,9.6,80,0.00,,,0.00,WUHU216HW,2013-02-11 08:05:00,
2013-02-11 02:30:00,29.2,23.8,29.39,WNW,293,9.2,9.2,80,0.00,,,0.00,WUHU216HW,2013-02-11 08:30:00,
2013-02-11 02:35:00,29.2,23.8,29.39,WNW,293,9.2,9.2,80,0.00,,,0.00,WUHU216HW,2013-02-11 08:35:00,
2013-02-11 03:00:00,29.0,23.6,29.40,NNW,338,16.1,16.1,80,0.00,,,0.00,WUHU216HW,2013-02-11 09:00:00,
2013-02-11 03:05:00,29.0,23.6,29.40,NNW,338,16.1,16.1,80,0.00,,,0.00,WUHU216HW,2013-02-11 09:05:00,
2013-02-11 03:30:00,28.8,23.4,29.41,NW,315,9.2,9.2,80,0.00,,,0.00,WUHU216HW,2013-02-11 09:30:00,
2013-02-11 03:35:00,28.8,23.4,29.41,NW,315,9.2,9.2,80,0.00,,,0.00,WUHU216HW,2013-02-11 09:35:00,
2013-02-11 04:00:00,28.6,23.2,29.43,NNW,338,12.1,12.1,80,0.00,,,0.00,WUHU216HW,2013-02-11 10:00:00,
2013-02-11 04:05:00,28.6,23.2,29.43,NW,315,11.4,12.1,80,0.00,,,0.00,WUHU216HW,2013-02-11 10:05:00,
2013-02-11 04:10:00,28.6,23.2,29.43,NW,315,11.4,11.4,80,0.00,,,0.00,WUHU216HW,2013-02-11 10:10:00,
2013-02-11 04:30:00,28.3,22.9,29.46,NW,315,6.3,6.3,80,0.00,,,0.00,WUHU216HW,2013-02-11 10:30:00,
2013-02-11 04:35:00,28.3,22.9,29.46,NW,315,6.3,6.3,80,0.00,,,0.00,WUHU216HW,2013-02-11 10:35:00,
2013-02-11 04:36:00,28.3,22.9,29.46,NW,315,6.3,6.3,80,0.00,,,0.00,WUHU216HW,2013-02-11 10:36:00,
2013-02-11 05:00:00,27.9,22.5,29.48,NW,315,21.5,21.5,80,0.00,,,0.00,WUHU216HW,2013-02-11 11:00:00,
2013-02-11 05:05:00,27.9,22.5,29.48,NW,315,21.5,21.5,80,0.00,,,0.00,WUHU216HW,2013-02-11 11:05:00,
2013-02-11 05:30:00,27.5,22.1,29.50,NW,315,17.2,17.2,80,0.00,,,0.00,WUHU216HW,2013-02-11 11:30:00,
2013-02-11 05:35:00,27.5,22.1,29.50,NW,315,17.2,17.2,80,0.00,,,0.00,WUHU216HW,2013-02-11 11:35:00,
2013-02-11 06:00:00,27.0,21.6,29.52,WNW,293,13.0,13.0,80,0.00,,,0.00,WUHU216HW,2013-02-11 12:00:00,
2013-02-11 06:05:00,27.0,21.6,29.52,NW,315,11.4,15.2,80,0.00,,,0.00,WUHU216HW,2013-02-11 12:05:00,
2013-02-11 06:10:00,27.0,21.6,29.52,NW,315,11.4,15.2,80,0.00,,,0.00,WUHU216HW,2013-02-11 12:10:00,
2013-02-11 06:32:00,26.3,20.9,29.54,WNW,293,6.9,6.9,80,0.00,,,0.00,WUHU216HW,2013-02-11 12:32:00,
2013-02-11 06:33:00,26.3,20.9,29.54,NW,315,10.1,10.1,80,0.00,,,0.00,WUHU216HW,2013-02-11 12:33:00,
2013-02-11 06:37:00,26.3,20.9,29.55,WNW,293,11.9,15.2,80,0.00,,,0.00,WUHU216HW,2013-02-11 12:37:00,
2013-02-11 06:38:00,26.3,21.3,29.55,NW,315,14.3,15.2,81,0.00,,,0.00,WUHU216HW,2013-02-11 12:38:00,
2013-02-11 06:42:00,26.3,21.3,29.55,WNW,293,11.6,15.2,81,0.00,,,0.00,WUHU216HW,2013-02-11 12:42:00,
2013-02-11 06:43:00,26.3,21.3,29.55,WNW,293,11.6,15.2,81,0.00,,,0.00,WUHU216HW,2013-02-11 12:43:00,
2013-02-11 06:48:00,26.3,21.3,29.55,WNW,293,11.6,14.3,81,0.00,,,0.00,WUHU216HW,2013-02-11 12:48:00,
2013-02-11 07:00:00,26.1,20.8,29.57,NW,315,16.3,16.3,80,0.00,,,0.00,WUHU216HW,2013-02-11 13:00:00,
2013-02-11 07:05:00,26.1,20.8,29.57,West,270,15.0,16.3,80,0.00,,,0.00,WUHU216HW,2013-02-11 13:05:00,
2013-02-11 07:10:00,26.1,20.8,29.57,West,270,15.0,15.0,80,0.00,,,0.00,WUHU216HW,2013-02-11 13:10:00,
2013-02-11 07:30:00,25.9,20.9,29.60,NW,315,16.3,16.3,81,0.00,,,0.00,WUHU216HW,2013-02-11 13:30:00,
2013-02-11 07:35:00,25.9,20.6,29.60,NW,315,16.6,16.6,80,0.00,,,0.00,WUHU216HW,2013-02-11 13:35:00,
2013-02-11 07:36:00,25.9,20.6,29.60,NW,315,16.6,16.6,80,0.00,,,0.00,WUHU216HW,2013-02-11 13:36:00,
2013-02-11 07:40:00,25.9,20.6,29.60,NW,315,16.6,16.6,80,0.00,,,0.00,WUHU216HW,2013-02-11 13:40:00,
2013-02-11 08:00:00,25.6,20.0,29.61,WNW,293,10.5,10.5,79,0.00,,,0.00,WUHU216HW,2013-02-11 14:00:00,
2013-02-11 08:05:00,25.7,20.1,29.61,NW,315,17.9,17.9,79,0.00,,,0.00,WUHU216HW,2013-02-11 14:05:00,
2013-02-11 08:30:00,25.6,20.0,29.63,NW,315,9.8,9.8,79,0.00,,,0.00,WUHU216HW,2013-02-11 14:30:00,
2013-02-11 08:35:00,25.4,19.8,29.63,NW,315,9.8,9.8,79,0.00,,,0.00,WUHU216HW,2013-02-11 14:35:00,
2013-02-11 09:00:00,25.4,19.4,29.65,WNW,293,9.8,9.8,78,0.00,,,0.00,WUHU216HW,2013-02-11 15:00:00,
2013-02-11 09:05:00,25.2,19.3,29.65,NW,315,11.4,11.4,78,0.00,,,0.00,WUHU216HW,2013-02-11 15:05:00,
2013-02-11 09:10:00,25.2,19.3,29.65,NW,315,11.4,11.4,78,0.00,,,0.00,WUHU216HW,2013-02-11 15:10:00,
2013-02-11 09:30:00,25.4,19.2,29.67,NW,315,17.0,17.0,77,0.00,,,0.00,WUHU216HW,2013-02-11 15:30:00,
2013-02-11 09:35:00,25.2,19.0,29.67,WNW,293,14.8,17.0,77,0.00,,,0.00,WUHU216HW,2013-02-11 15:35:00,
2013-02-11 09:36:00,25.2,19.0,29.67,WNW,293,14.8,17.0,77,0.00,,,0.00,WUHU216HW,2013-02-11 15:36:00,
2013-02-11 09:40:00,25.2,19.0,29.67,WNW,293,14.8,17.0,77,0.00,,,0.00,WUHU216HW,2013-02-11 15:40:00,
2013-02-11 10:00:00,25.7,18.8,29.69,WNW,293,15.0,15.0,75,0.00,,,0.00,WUHU216HW,2013-02-11 16:00:00,
2013-02-11 10:05:00,25.7,18.8,29.69,NW,315,13.9,23.3,75,0.00,,,0.00,WUHU216HW,2013-02-11 16:05:00,
2013-02-11 10:10:00,25.7,18.8,29.69,NW,315,13.9,23.3,75,0.00,,,0.00,WUHU216HW,2013-02-11 16:10:00,
2013-02-11 10:30:00,25.9,18.7,29.71,NW,315,16.8,16.8,74,0.00,,,0.00,WUHU216HW,2013-02-11 16:30:00,
2013-02-11 10:35:00,25.9,19.0,29.71,NW,315,12.8,16.8,75,0.00,,,0.00,WUHU216HW,2013-02-11 16:35:00,
2013-02-11 10:40:00,25.9,19.0,29.71,NW,315,12.8,16.8,75,0.00,,,0.00,WUHU216HW,2013-02-11 16:40:00,
2013-02-11 11:00:00,26.5,19.3,29.73,NW,315,13.9,13.9,74,0.00,,,0.00,WUHU216HW,2013-02-11 17:00:00,
2013-02-11 11:05:00,26.5,18.9,29.73,WNW,293,13.2,13.9,73,0.00,,,0.00,WUHU216HW,2013-02-11 17:05:00,
2013-02-11 11:06:00,26.5,18.9,29.73,WNW,293,13.2,13.9,73,0.00,,,0.00,WUHU216HW,2013-02-11 17:06:00,
2013-02-11 11:10:00,26.5,18.9,29.73,WNW,293,13.2,13.9,73,0.00,,,0.00,WUHU216HW,2013-02-11 17:10:00,
2013-02-11 11:30:00,26.5,18.9,29.74,WNW,293,17.9,17.9,73,0.00,,,0.00,WUHU216HW,2013-02-11 17:30:00,
2013-02-11 11:35:00,26.5,18.9,29.74,West,270,15.0,17.9,73,0.00,,,0.00,WUHU216HW,2013-02-11 17:35:00,
2013-02-11 11:36:00,26.5,18.9,29.74,West,270,15.0,17.9,73,0.00,,,0.00,WUHU216HW,2013-02-11 17:36:00,
2013-02-11 11:40:00,26.5,18.9,29.74,West,270,15.0,15.0,73,0.00,,,0.00,WUHU216HW,2013-02-11 17:40:00,
2013-02-11 12:00:00,26.6,18.8,29.75,NW,315,19.7,19.7,72,0.00,,,0.00,WUHU216HW,2013-02-11 18:00:00,
2013-02-11 12:05:00,26.6,18.8,29.75,NW,315,19.2,19.7,72,0.00,,,0.00,WUHU216HW,2013-02-11 18:05:00,
2013-02-11 12:10:00,26.6,18.8,29.75,NW,315,19.2,19.2,72,0.00,,,0.00,WUHU216HW,2013-02-11 18:10:00,
2013-02-11 12:30:00,26.5,18.6,29.76,NW,315,17.7,17.7,72,0.00,,,0.00,WUHU216HW,2013-02-11 18:30:00,
2013-02-11 12:35:00,26.5,18.6,29.76,WSW,248,18.3,18.3,72,0.00,,,0.00,WUHU216HW,2013-02-11 18:35:00,
2013-02-11 12:40:00,26.5,18.6,29.76,WSW,248,18.3,18.3,72,0.00,,,0.00,WUHU216HW,2013-02-11 18:40:00,
2013-02-11 13:00:00,27.2,19.4,29.77,WNW,293,14.5,14.5,72,0.00,,,0.00,WUHU216HW,2013-02-11 19:00:00,
2013-02-11 13:05:00,27.0,19.2,29.77,West,270,12.3,14.5,72,0.00,,,0.00,WUHU216HW,2013-02-11 19:05:00,
2013-02-11 13:10:00,27.0,19.2,29.77,West,270,12.3,14.5,72,0.00,,,0.00,WUHU216HW,2013-02-11 19:10:00,
2013-02-11 13:30:00,27.0,19.2,29.78,West,270,19.5,19.5,72,0.00,,,0.00,WUHU216HW,2013-02-11 19:30:00,
2013-02-11 13:31:00,26.8,19.0,29.78,WNW,283,18.8,19.5,72,0.00,,,0.00,WUHU216HW,2013-02-11 19:31:00,
2013-02-11 13:35:00,26.8,19.0,29.78,NW,315,17.4,19.5,72,0.00,,,0.00,WUHU216HW,2013-02-11 19:35:00,
2013-02-11 13:36:00,26.8,19.0,29.78,NW,315,17.4,19.5,72,0.00,,,0.00,WUHU216HW,2013-02-11 19:36:00,
2013-02-11 13:40:00,26.8,19.0,29.78,NW,315,17.4,17.4,72,0.00,,,0.00,WUHU216HW,2013-02-11 19:40:00,
2013-02-11 14:00:00,27.5,19.4,29.79,WNW,293,13.4,13.4,71,0.00,,,0.00,WUHU216HW,2013-02-11 20:00:00,
2013-02-11 14:05:00,27.5,19.4,29.79,WNW,293,10.5,13.4,71,0.00,,,0.00,WUHU216HW,2013-02-11 20:05:00,
2013-02-11 14:10:00,27.5,19.4,29.79,WNW,293,10.5,13.4,71,0.00,,,0.00,WUHU216HW,2013-02-11 20:10:00,
2013-02-11 14:30:00,27.7,19.3,29.80,WNW,293,13.4,13.4,70,0.00,,,0.00,WUHU216HW,2013-02-11 20:30:00,
2013-02-11 14:35:00,27.9,19.4,29.80,NW,315,17.9,17.9,70,0.00,,,0.00,WUHU216HW,2013-02-11 20:35:00,
2013-02-11 14:40:00,27.9,19.4,29.80,NW,315,17.9,17.9,70,0.00,,,0.00,WUHU216HW,2013-02-11 20:40:00,
2013-02-11 15:00:00,26.6,19.1,29.81,West,270,18.3,18.3,73,0.00,,,0.00,WUHU216HW,2013-02-11 21:00:00,
2013-02-11 15:05:00,26.6,19.1,29.81,West,270,14.3,18.3,73,0.00,,,0.00,WUHU216HW,2013-02-11 21:05:00,
2013-02-11 15:10:00,26.6,19.1,29.81,West,270,14.3,14.3,73,0.00,,,0.00,WUHU216HW,2013-02-11 21:10:00,
2013-02-11 15:30:00,25.9,19.0,29.83,West,270,7.6,7.6,75,0.00,,,0.00,WUHU216HW,2013-02-11 21:30:00,
2013-02-11 15:35:00,25.9,19.0,29.83,West,270,11.4,11.4,75,0.00,,,0.00,WUHU216HW,2013-02-11 21:35:00,
2013-02-11 15:40:00,25.9,19.0,29.83,West,270,11.4,11.4,75,0.00,,,0.00,WUHU216HW,2013-02-11 21:40:00,
2013-02-11 16:00:00,25.6,18.7,29.85,West,270,14.3,14.3,75,0.00,,,0.00,WUHU216HW,2013-02-11 22:00:00,
2013-02-11 16:05:00,25.6,18.7,29.85,WNW,293,16.8,16.8,75,0.00,,,0.00,WUHU216HW,2013-02-11 22:05:00,
2013-02-11 16:10:00,25.6,18.7,29.85,WNW,293,16.8,16.8,75,0.00,,,0.00,WUHU216HW,2013-02-11 22:10:00,
2013-02-11 16:30:00,25.0,18.2,29.86,WNW,293,10.7,10.7,75,0.00,,,0.00,WUHU216HW,2013-02-11 22:30:00,
2013-02-11 16:35:00,25.0,18.2,29.86,WNW,293,10.7,10.7,75,0.00,,,0.00,WUHU216HW,2013-02-11 22:35:00,
2013-02-11 16:36:00,25.0,18.2,29.86,WNW,293,10.7,10.7,75,0.00,,,0.00,WUHU216HW,2013-02-11 22:36:00,
2013-02-11 17:00:00,24.1,17.7,29.88,WNW,293,14.5,14.5,76,0.00,,,0.00,WUHU216HW,2013-02-11 23:00:00,
2013-02-11 17:05:00,24.1,17.7,29.88,WNW,293,14.5,14.5,76,0.00,,,0.00,WUHU216HW,2013-02-11 23:05:00,
2013-02-11 17:30:00,23.4,16.9,29.89,WNW,293,11.4,11.4,76,0.00,,,0.00,WUHU216HW,2013-02-11 23:30:00,
2013-02-11 17:35:00,23.4,16.9,29.89,WNW,293,11.4,11.4,76,0.00,,,0.00,WUHU216HW,2013-02-11 23:35:00,
2013-02-11 18:00:00,23.0,16.6,29.90,WSW,248,9.8,9.8,76,0.00,,,0.00,WUHU216HW,2013-02-12 00:00:00,
2013-02-11 18:05:00,22.9,16.4,29.90,WNW,293,11.6,11.6,76,0.00,,,0.00,WUHU216HW,2013-02-12 00:05:00,
2013-02-11 18:10:00,22.9,16.4,29.90,WNW,293,11.6,11.6,76,0.00,,,0.00,WUHU216HW,2013-02-12 00:10:00,
2013-02-11 18:30:00,22.5,16.4,29.91,West,270,7.6,7.6,77,0.00,,,0.00,WUHU216HW,2013-02-12 00:30:00,
2013-02-11 18:35:00,22.5,16.4,29.91,West,270,7.6,7.6,77,0.00,,,0.00,WUHU216HW,2013-02-12 00:35:00,
2013-02-11 19:00:00,22.0,15.9,29.92,West,270,6.0,6.0,77,0.00,,,0.00,WUHU216HW,2013-02-12 01:00:00,
2013-02-11 19:05:00,22.0,15.9,29.92,West,270,8.5,8.5,77,0.00,,,0.00,WUHU216HW,2013-02-12 01:05:00,
2013-02-11 19:10:00,22.0,15.9,29.92,West,270,8.5,8.5,77,0.00,,,0.00,WUHU216HW,2013-02-12 01:10:00,
2013-02-11 19:30:00,21.6,15.5,29.92,WSW,248,6.9,6.9,77,0.00,,,0.00,WUHU216HW,2013-02-12 01:30:00,
2013-02-11 19:32:00,21.6,15.5,29.93,West,270,6.9,6.9,77,0.00,,,0.00,WUHU216HW,2013-02-12 01:32:00,
2013-02-11 19:35:00,21.6,15.5,29.93,West,270,6.9,9.8,77,0.00,,,0.00,WUHU216HW,2013-02-12 01:35:00,
2013-02-11 19:40:00,21.6,15.5,29.93,West,270,6.9,9.8,77,0.00,,,0.00,WUHU216HW,2013-02-12 01:40:00,
2013-02-11 20:00:00,21.2,15.1,29.93,WNW,293,12.5,12.5,77,0.00,,,0.00,WUHU216HW,2013-02-12 02:00:00,
2013-02-11 20:05:00,21.2,15.1,29.93,West,270,9.8,12.5,77,0.00,,,0.00,WUHU216HW,2013-02-12 02:05:00,
2013-02-11 20:10:00,21.2,15.1,29.93,West,270,9.8,9.8,77,0.00,,,0.00,WUHU216HW,2013-02-12 02:10:00,
2013-02-11 20:30:00,20.7,14.6,29.94,WNW,293,7.2,7.2,77,0.00,,,0.00,WUHU216HW,2013-02-12 02:30:00,
2013-02-11 20:35:00,20.7,14.6,29.94,WNW,293,8.7,8.7,77,0.00,,,0.00,WUHU216HW,2013-02-12 02:35:00,
2013-02-11 20:40:00,20.7,14.6,29.94,WNW,293,8.7,8.7,77,0.00,,,0.00,WUHU216HW,2013-02-12 02:40:00,
2013-02-11 21:00:00,20.2,14.3,29.95,West,270,6.3,6.3,78,0.00,,,0.00,WUHU216HW,2013-02-12 03:00:00,
2013-02-11 21:05:00,20.2,14.3,29.95,WSW,248,6.9,6.9,78,0.00,,,0.00,WUHU216HW,2013-02-12 03:05:00,
2013-02-11 21:06:00,20.2,14.3,29.95,WSW,248,6.9,6.9,78,0.00,,,0.00,WUHU216HW,2013-02-12 03:06:00,
2013-02-11 21:10:00,20.2,14.3,29.95,WSW,248,6.9,6.9,78,0.00,,,0.00,WUHU216HW,2013-02-12 03:10:00,
2013-02-11 21:30:00,20.0,14.1,29.95,West,270,8.1,8.1,78,0.00,,,0.00,WUHU216HW,2013-02-12 03:30:00,
2013-02-11 21:35:00,20.0,14.1,29.95,West,270,8.1,8.1,78,0.00,,,0.00,WUHU216HW,2013-02-12 03:35:00,
2013-02-11 22:00:00,19.8,14.0,29.96,West,270,8.7,8.7,78,0.00,,,0.00,WUHU216HW,2013-02-12 04:00:00,
2013-02-11 22:05:00,19.8,14.0,29.96,West,270,8.7,8.7,78,0.00,,,0.00,WUHU216HW,2013-02-12 04:05:00,
2013-02-11 22:30:00,18.4,12.9,29.97,WNW,293,7.6,7.6,79,0.00,,,0.00,WUHU216HW,2013-02-12 04:30:00,
2013-02-11 22:31:00,18.4,12.9,29.97,WNW,293,8.3,8.3,79,0.00,,,0.00,WUHU216HW,2013-02-12 04:31:00,
2013-02-11 22:35:00,18.4,12.9,29.97,WNW,293,8.3,8.3,79,0.00,,,0.00,WUHU216HW,2013-02-12 04:35:00,
2013-02-11 22:40:00,18.4,12.9,29.97,WNW,293,8.3,8.3,79,0.00,,,0.00,WUHU216HW,2013-02-12 04:40:00,
2013-02-11 23:00:00,16.9,11.5,29.98,West,270,6.0,6.0,79,0.00,,,0.00,WUHU216HW,2013-02-12 05:00:00,
2013-02-11 23:05:00,16.9,11.5,29.98,West,270,6.7,6.7,79,0.00,,,0.00,WUHU216HW,2013-02-12 05:05:00,
2013-02-11 23:10:00,16.9,11.5,29.98,West,270,6.7,6.7,79,0.00,,,0.00,WUHU216HW,2013-02-12 05:10:00,
2013-02-11 23:30:00,16.0,11.0,29.98,SW,225,5.4,5.4,80,0.00,,,0.00,WUHU216HW,2013-02-12 05:30:00,
2013-02-11 23:31:00,16.0,11.0,29.98,SW,231,4.8,5.4,80,0.00,,,0.00,WUHU216HW,2013-02-12 05:31:00,
2013-02-11 23:35:00,16.0,11.0,29.98,WSW,248,3.6,5.4,80,0.00,,,0.00,WUHU216HW,2013-02-12 05:35:00,
2013-02-11 23:36:00,16.0,11.0,29.98,WSW,248,3.6,5.4,80,0.00,,,0.00,WUHU216HW,2013-02-12 05:36:00,
2013-02-11 23:40:00,16.0,11.0,29.98,WSW,248,3.6,3.6,80,0.00,,,0.00,WUHU216HW,2013-02-12 05:40:00,